Weather History for Homestead AFB, FL

Change the Weather History Date:

Saturday, February 15, 2014

  Actual Average Record
Temperature  
Mean Temperature 66 °F -  
Max Temperature 78 °F 77 °F 88 °F (1944)
Min Temperature 55 °F 54 °F 35 °F (1943)
Cooling Degree Days 2    
Growing Degree Days 16 (Base 50)    
Moisture  
Dew Point 59 °F    
Average Humidity 78    
Maximum Humidity 100    
Minimum Humidity 51    
Precipitation  
Precipitation 0.00 in - - ()
Sea Level Pressure  
Sea Level Pressure 30.07 in    
Wind  
Wind Speed 6 mph (West)    
Max Wind Speed 15 mph    
Max Gust Speed 22 mph    
Visibility 10 miles    
Events      
Averages and records for this station are not official NWS values.
T = Trace of Precipitation, MM = Missing Value Source: NWS Daily Summary

Daily Weather History Graph

Daily Weather History Graph

Search for Another Location

Airport:

Trip Planner

Search our weather history database for the weather conditions in past years. The results will help you decide how hot, cold, wet, or windy it might be!

Date:

Astronomy

Feb. 15, 2014 Rise Set
Actual Time 6:56 AM EST 6:15 PM EST
Civil Twilight 6:32 AM EST 6:38 PM EST
Nautical Twilight 6:05 AM EST 7:05 PM EST
Astronomical Twilight 5:39 AM EST 7:32 PM EST
Moon 7:03 PM EST (2/15) 7:02 AM EST (2/15)
Length of Visible Light 12h 05m
Length of Day
11h 18m
Full, 100% of the Moon is Illuminated
Feb 15
Full
Feb 22
Last Quarter
Mar 1
New
Mar 8
First Quarter
Mar 16
Full

Hourly Weather History & Observations

Time (EST) Temp. Dew Point Humidity Pressure Visibility Wind Dir Wind Speed Gust Speed Precip Events Conditions
12:58 AM 59.5 °F 54.1 °F 82% 30.03 in 10.0 mi West 3.5 mph - N/A   Mostly Cloudy
1:58 AM 57.9 °F 53.8 °F 86% 30.02 in 10.0 mi WNW 3.5 mph - N/A   Scattered Clouds
2:58 AM 58.1 °F 54.0 °F 86% 30.01 in 10.0 mi SW 1.2 mph - N/A   Scattered Clouds
3:58 AM 57.2 °F 53.1 °F 86% 30.01 in 10.0 mi Calm Calm - N/A   Partly Cloudy
4:58 AM 55.6 °F 55.6 °F 100% 30.01 in 10.0 mi Calm Calm - N/A   Clear
5:58 AM 55.2 °F 55.2 °F 100% 30.03 in 10.0 mi Calm Calm - N/A   Clear
6:58 AM 56.5 °F 56.5 °F 100% 30.06 in 10.0 mi North 1.2 mph - N/A   Clear
7:58 AM 59.9 °F 59.9 °F 100% 30.09 in 10.0 mi SSW 2.3 mph - N/A   Mostly Cloudy
8:58 AM 66.2 °F 62.4 °F 88% 30.10 in 10.0 mi SSW 5.8 mph - N/A   Partly Cloudy
9:58 AM 72.9 °F 62.8 °F 71% 30.10 in 10.0 mi WSW 12.7 mph - N/A   Clear
10:58 AM 75.4 °F 62.8 °F 65% 30.09 in 10.0 mi West 12.7 mph - N/A   Clear
11:58 AM 75.6 °F 61.5 °F 62% 30.07 in 10.0 mi West 13.8 mph - N/A   Scattered Clouds
12:58 PM 76.3 °F 62.8 °F 63% 30.06 in 10.0 mi West 15.0 mph - N/A   Scattered Clouds
1:58 PM 75.6 °F 64.0 °F 67% 30.04 in 10.0 mi West 12.7 mph - N/A   Scattered Clouds
2:58 PM 77.2 °F 64.4 °F 65% 30.03 in 10.0 mi WNW 13.8 mph 21.9 mph N/A   Scattered Clouds
2:59 PM 77.0 °F 64.4 °F 65% 30.02 in 10.0 mi WNW 13.8 mph 21.9 mph N/A   Scattered Clouds
3:58 PM 78.4 °F 58.8 °F 51% 30.03 in 10.0 mi West 12.7 mph - N/A   Clear
4:58 PM 76.8 °F 58.8 °F 54% 30.05 in 10.0 mi West 15.0 mph - N/A   Clear
5:58 PM 73.4 °F 60.6 °F 64% 30.07 in 10.0 mi West 9.2 mph - N/A   Clear
6:58 PM 69.1 °F 61.2 °F 76% 30.09 in 10.0 mi West 10.4 mph - N/A   Clear
7:58 PM 66.9 °F 60.4 °F 80% 30.11 in 10.0 mi WNW 6.9 mph - N/A   Clear
8:58 PM 64.9 °F 59.4 °F 82% 30.13 in 10.0 mi WNW 6.9 mph - N/A   Clear
9:58 PM 63.5 °F 58.8 °F 85% 30.14 in 10.0 mi WNW 6.9 mph - N/A   Clear
10:58 PM 62.2 °F 57.7 °F 85% 30.15 in 10.0 mi WNW 6.9 mph - N/A   Clear
11:58 PM 61.2 °F 57.0 °F 86% 30.14 in 10.0 mi NW 6.9 mph - N/A   Clear